When you browse on this site, cookies collect data to enhance your experience and personalize the content and advertising you see.
Visit our Privacy Policy to learn more. By continuing to use the site, you agree to this use of cookies and data.
EN

Hourly Weather Litvinov

Today, 5 July, Sunday

Time Temperature Precipitation Wind Pressure Humidity
00:00 +18°C° 0 mm 3 mps 723 mmHg 73%
01:00 +18°C° 0 mm 2 mps 722 mmHg 71%
02:00 +18°C° 0 mm 2 mps 722 mmHg 76%
03:00 +17°C° 0 mm 3 mps 722 mmHg 80%
04:00 +17°C° 0 mm 3 mps 722 mmHg 85%
05:00 +17°C° 0 mm 3 mps 722 mmHg 84%
06:00 +18°C° 0 mm 3 mps 722 mmHg 83%
07:00 +19°C° 0 mm 4 mps 722 mmHg 83%
08:00 +20°C° 0 mm 4 mps 722 mmHg 78%
09:00 +21°C° 0 mm 5 mps 722 mmHg 73%
10:00 +23°C° 0 mm 6 mps 722 mmHg 69%
11:00 +23°C° 0.1 mm 6 mps 722 mmHg 69%
12:00 +23°C° 0.1 mm 6 mps 722 mmHg 69%
13:00 +23°C° 0.1 mm 6 mps 722 mmHg 69%
14:00 +23°C° 0.1 mm 6 mps 722 mmHg 69%
15:00 +23°C° 0.1 mm 5 mps 722 mmHg 70%
16:00 +23°C° 0.1 mm 5 mps 721 mmHg 70%
17:00 +22°C° 0.1 mm 4 mps 721 mmHg 73%
18:00 +22°C° 0.1 mm 4 mps 721 mmHg 75%
19:00 +22°C° 0.1 mm 3 mps 721 mmHg 78%
20:00 +20°C° 0 mm 3 mps 721 mmHg 81%
21:00 +19°C° 0 mm 3 mps 721 mmHg 85%
22:00 +18°C° 0 mm 3 mps 720 mmHg 88%
23:00 +17°C° 0 mm 3 mps 720 mmHg 89%

Tomorrow, 6 July, Monday

Time Temperature Precipitation Wind Pressure Humidity
00:00 +17°C° 0 mm 3 mps 720 mmHg 89%
01:00 +17°C° 0 mm 3 mps 720 mmHg 89%
02:00 +17°C° 0 mm 3 mps 720 mmHg 89%
03:00 +17°C° 0 mm 3 mps 720 mmHg 88%
04:00 +17°C° 0 mm 3 mps 719 mmHg 87%
05:00 +17°C° 0.3 mm 3 mps 720 mmHg 87%
06:00 +17°C° 0.3 mm 3 mps 720 mmHg 87%
07:00 +17°C° 0.3 mm 4 mps 720 mmHg 87%
08:00 +17°C° 0.1 mm 4 mps 720 mmHg 78%
09:00 +17°C° 0.1 mm 5 mps 720 mmHg 68%
10:00 +19°C° 0.1 mm 5 mps 721 mmHg 59%
11:00 +19°C° 0 mm 5 mps 721 mmHg 55%
12:00 +20°C° 0 mm 6 mps 721 mmHg 51%
13:00 +20°C° 0 mm 6 mps 721 mmHg 47%
14:00 +20°C° 0 mm 6 mps 721 mmHg 49%
15:00 +19°C° 0 mm 6 mps 721 mmHg 51%
16:00 +19°C° 0 mm 6 mps 721 mmHg 52%
17:00 +17°C° 0 mm 5 mps 721 mmHg 56%
18:00 +16°C° 0 mm 5 mps 721 mmHg 60%
19:00 +15°C° 0 mm 4 mps 721 mmHg 64%
20:00 +14°C° 0 mm 4 mps 722 mmHg 68%
21:00 +12°C° 0 mm 4 mps 722 mmHg 72%
22:00 +11°C° 0 mm 4 mps 722 mmHg 76%
23:00 +10°C° 0 mm 3 mps 723 mmHg 80%

Day after tomorrow, 7 July, Tuesday

Time Temperature Precipitation Wind Pressure Humidity
00:00 +10°C° 0 mm 3 mps 723 mmHg 84%
01:00 +9°C° 0 mm 3 mps 724 mmHg 88%
02:00 +9°C° 0 mm 3 mps 724 mmHg 88%
03:00 +9°C° 0 mm 3 mps 724 mmHg 88%
04:00 +10°C° 0 mm 3 mps 725 mmHg 87%
05:00 +10°C° 0 mm 4 mps 725 mmHg 86%
06:00 +9°C° 0 mm 5 mps 725 mmHg 84%
07:00 +10°C° 0 mm 5 mps 725 mmHg 82%
08:00 +12°C° 0.1 mm 5 mps 725 mmHg 77%
09:00 +12°C° 0.1 mm 5 mps 726 mmHg 72%
10:00 +13°C° 0.1 mm 5 mps 726 mmHg 67%
11:00 +14°C° 0 mm 4 mps 726 mmHg 64%
12:00 +15°C° 0 mm 4 mps 726 mmHg 60%
13:00 +16°C° 0 mm 3 mps 726 mmHg 56%
14:00 +17°C° 0 mm 3 mps 725 mmHg 56%
15:00 +17°C° 0 mm 3 mps 725 mmHg 55%
16:00 +17°C° 0 mm 3 mps 725 mmHg 54%
17:00 +17°C° 0 mm 2 mps 725 mmHg 59%
18:00 +16°C° 0 mm 2 mps 725 mmHg 64%
19:00 +15°C° 0 mm 2 mps 724 mmHg 69%
20:00 +14°C° 0 mm 1 mps 724 mmHg 73%
21:00 +12°C° 0 mm 1 mps 724 mmHg 77%
22:00 +10°C° 0 mm 1 mps 724 mmHg 81%
23:00 +11°C° 0 mm 1 mps 724 mmHg 81%

8 July, Wednesday

Time Temperature Precipitation Wind Pressure Humidity
00:00 +11°C° 0 mm 1 mps 724 mmHg 80%
01:00 +11°C° 0 mm 1 mps 723 mmHg 80%
02:00 +10°C° 0 mm 1 mps 723 mmHg 80%
03:00 +10°C° 0 mm 1 mps 723 mmHg 81%
04:00 +9°C° 0 mm 2 mps 723 mmHg 81%
05:00 +12°C° 0 mm 2 mps 723 mmHg 77%
06:00 +13°C° 0 mm 2 mps 723 mmHg 74%
07:00 +14°C° 0 mm 2 mps 723 mmHg 70%
08:00 +14°C° 0 mm 3 mps 723 mmHg 67%
09:00 +17°C° 0 mm 3 mps 723 mmHg 63%
10:00 +18°C° 0 mm 3 mps 723 mmHg 60%
11:00 +18°C° 0 mm 3 mps 723 mmHg 60%
12:00 +19°C° 0 mm 3 mps 722 mmHg 61%
13:00 +19°C° 0 mm 4 mps 722 mmHg 61%
14:00 +19°C° 0 mm 3 mps 722 mmHg 63%
15:00 +18°C° 0 mm 3 mps 722 mmHg 65%
16:00 +18°C° 0 mm 3 mps 722 mmHg 67%
17:00 +18°C° 0.1 mm 3 mps 722 mmHg 69%
18:00 +18°C° 0.1 mm 3 mps 722 mmHg 72%
19:00 +18°C° 0.1 mm 3 mps 722 mmHg 74%
20:00 +16°C° 0 mm 3 mps 723 mmHg 78%
21:00 +14°C° 0 mm 3 mps 723 mmHg 83%
22:00 +13°C° 0 mm 3 mps 724 mmHg 88%
23:00 +12°C° 0 mm 3 mps 724 mmHg 89%

9 July, Thursday

Time Temperature Precipitation Wind Pressure Humidity
00:00 +12°C° 0 mm 3 mps 724 mmHg 91%
01:00 +12°C° 0 mm 2 mps 725 mmHg 93%
02:00 +12°C° 0 mm 2 mps 725 mmHg 94%
03:00 +11°C° 0 mm 1 mps 725 mmHg 94%
04:00 +10°C° 0 mm 1 mps 725 mmHg 95%
05:00 +11°C° 0 mm 1 mps 725 mmHg 90%
06:00 +12°C° 0 mm 1 mps 726 mmHg 84%
07:00 +14°C° 0 mm 1 mps 726 mmHg 79%
08:00 +15°C° 0 mm 1 mps 726 mmHg 72%
09:00 +18°C° 0 mm 1 mps 727 mmHg 66%
10:00 +19°C° 0 mm 1 mps 727 mmHg 59%
11:00 +20°C° 0 mm 1 mps 727 mmHg 57%
12:00 +21°C° 0 mm 1 mps 726 mmHg 54%
13:00 +22°C° 0 mm 1 mps 726 mmHg 52%
14:00 +22°C° 0 mm 1 mps 726 mmHg 53%
15:00 +22°C° 0 mm 1 mps 725 mmHg 54%
16:00 +21°C° 0 mm 1 mps 725 mmHg 55%
17:00 +21°C° 0 mm 1 mps 725 mmHg 59%
18:00 +20°C° 0 mm 1 mps 725 mmHg 64%
19:00 +20°C° 0 mm 1 mps 724 mmHg 68%
20:00 +18°C° 0 mm 1 mps 724 mmHg 72%
21:00 +15°C° 0 mm 1 mps 724 mmHg 75%
22:00 +14°C° 0 mm 1 mps 724 mmHg 79%
23:00 +14°C° 0 mm 1 mps 724 mmHg 80%

10 July, Friday

Time Temperature Precipitation Wind Pressure Humidity
00:00 +13°C° 0 mm 1 mps 724 mmHg 80%
01:00 +13°C° 0 mm 1 mps 723 mmHg 81%
02:00 +13°C° 0 mm 1 mps 723 mmHg 82%
03:00 +13°C° 0 mm 1 mps 723 mmHg 83%
04:00 +12°C° 0 mm 1 mps 722 mmHg 84%
05:00 +14°C° 0 mm 2 mps 722 mmHg 81%
06:00 +15°C° 0 mm 2 mps 722 mmHg 78%
07:00 +16°C° 0 mm 2 mps 722 mmHg 75%
08:00 +18°C° 0 mm 2 mps 723 mmHg 70%
09:00 +20°C° 0 mm 2 mps 723 mmHg 65%
10:00 +23°C° 0 mm 2 mps 723 mmHg 60%
11:00 +24°C° 0 mm 2 mps 722 mmHg 56%
12:00 +25°C° 0 mm 2 mps 722 mmHg 53%
13:00 +27°C° 0 mm 2 mps 722 mmHg 49%
14:00 +27°C° 0 mm 2 mps 722 mmHg 50%
15:00 +27°C° 0 mm 2 mps 721 mmHg 50%
16:00 +27°C° 0 mm 2 mps 721 mmHg 51%
17:00 +26°C° 0 mm 2 mps 721 mmHg 56%
18:00 +25°C° 0 mm 1 mps 721 mmHg 62%
19:00 +24°C° 0 mm 1 mps 721 mmHg 68%
20:00 +23°C° 0 mm 1 mps 721 mmHg 71%
21:00 +21°C° 0 mm 1 mps 721 mmHg 74%
22:00 +19°C° 0 mm 2 mps 721 mmHg 77%
23:00 +18°C° 0 mm 2 mps 722 mmHg 83%
Show more